Year,Month,Day,Hour,Minute,Value (Times are PST for temperature in C)
2017,12,17,09,46,6.10
2017,12,17,09,47,6.10
2017,12,17,09,48,6.10
2017,12,17,09,49,6.20
2017,12,17,09,50,6.20
2017,12,17,09,51,6.20
2017,12,17,09,52,6.20
2017,12,17,09,53,6.20
2017,12,17,09,54,6.20
2017,12,17,09,55,6.20
2017,12,17,09,56,6.20
2017,12,17,09,57,6.20
2017,12,17,09,58,6.20
2017,12,17,09,59,6.20
2017,12,17,10,00,6.20
2017,12,17,10,01,6.20
2017,12,17,10,02,6.20
2017,12,17,10,03,6.20
2017,12,17,10,04,6.20
2017,12,17,10,05,6.20
2017,12,17,10,06,6.20
2017,12,17,10,07,6.20
2017,12,17,10,08,6.30
2017,12,17,10,09,6.30
2017,12,17,10,10,6.30
2017,12,17,10,11,6.30
2017,12,17,10,12,6.30
2017,12,17,10,13,6.30
2017,12,17,10,14,6.30
2017,12,17,10,15,6.40
2017,12,17,10,16,6.40
2017,12,17,10,17,6.40
2017,12,17,10,18,6.40
2017,12,17,10,19,6.40
2017,12,17,10,20,6.40
2017,12,17,10,21,6.40
2017,12,17,10,22,6.40
2017,12,17,10,23,6.40
2017,12,17,10,24,6.40
2017,12,17,10,25,6.40
2017,12,17,10,26,6.40
2017,12,17,10,27,6.40
2017,12,17,10,28,6.40
2017,12,17,10,29,6.40
2017,12,17,10,30,6.50
2017,12,17,10,31,6.60
2017,12,17,10,32,6.60
2017,12,17,10,33,6.60
2017,12,17,10,34,6.60
2017,12,17,10,35,6.60
2017,12,17,10,36,6.60
2017,12,17,10,37,6.60
2017,12,17,10,38,6.60
2017,12,17,10,39,6.70
2017,12,17,10,40,6.70
2017,12,17,10,41,6.70
2017,12,17,10,42,6.70
2017,12,17,10,43,6.70
2017,12,17,10,44,6.70
2017,12,17,10,45,6.70
2017,12,17,10,46,6.70
2017,12,17,10,47,6.80
2017,12,17,10,48,6.80
2017,12,17,10,49,6.80
2017,12,17,10,50,6.80
2017,12,17,10,51,6.80
2017,12,17,10,52,6.80
2017,12,17,10,53,6.80
2017,12,17,10,54,6.80
2017,12,17,10,55,6.80
2017,12,17,10,56,6.80
2017,12,17,10,57,6.80
2017,12,17,10,58,6.80
2017,12,17,10,59,6.80
2017,12,17,11,00,6.80
2017,12,17,11,01,6.80
2017,12,17,11,02,6.80
2017,12,17,11,03,6.80
2017,12,17,11,04,6.80
2017,12,17,11,05,6.80
2017,12,17,11,06,6.70
2017,12,17,11,07,6.70
2017,12,17,11,08,6.70
2017,12,17,11,09,6.70
2017,12,17,11,10,6.70
2017,12,17,11,11,6.70
2017,12,17,11,12,6.70
2017,12,17,11,13,6.70
2017,12,17,11,14,6.70
2017,12,17,11,15,6.80
2017,12,17,11,16,6.80
2017,12,17,11,17,6.80
2017,12,17,11,18,6.80
2017,12,17,11,19,6.80
2017,12,17,11,20,6.80
2017,12,17,11,21,6.80
2017,12,17,11,22,6.80
2017,12,17,11,23,6.80
2017,12,17,11,24,6.80
2017,12,17,11,25,6.80
2017,12,17,11,26,6.80
2017,12,17,11,27,6.80
2017,12,17,11,28,6.80
2017,12,17,11,29,6.80
2017,12,17,11,30,6.80
2017,12,17,11,31,6.80
2017,12,17,11,32,6.80
2017,12,17,11,33,6.80
2017,12,17,11,34,6.80
2017,12,17,11,35,6.90
2017,12,17,11,36,6.90
2017,12,17,11,37,6.90
2017,12,17,11,38,6.90
2017,12,17,11,39,6.90
2017,12,17,11,40,6.90
2017,12,17,11,41,6.90
2017,12,17,11,42,6.90
2017,12,17,11,43,6.90
2017,12,17,11,44,6.90
2017,12,17,11,45,6.90
2017,12,17,11,46,6.90
2017,12,17,11,47,6.90
2017,12,17,11,48,6.90
2017,12,17,11,49,6.90
2017,12,17,11,50,7.00
2017,12,17,11,51,6.90
2017,12,17,11,52,6.90
2017,12,17,11,53,7.00
2017,12,17,11,54,7.00
2017,12,17,11,55,7.00
2017,12,17,11,56,6.90
2017,12,17,11,57,6.90
2017,12,17,11,58,6.90
2017,12,17,11,59,6.90
2017,12,17,12,00,6.90
2017,12,17,12,01,7.00
2017,12,17,12,02,7.00
2017,12,17,12,03,7.00
2017,12,17,12,04,7.00
2017,12,17,12,05,7.00
2017,12,17,12,06,7.00
2017,12,17,12,07,7.00
2017,12,17,12,08,7.10
2017,12,17,12,09,7.10
2017,12,17,12,10,7.10
2017,12,17,12,11,7.10
2017,12,17,12,12,7.10
2017,12,17,12,13,7.10
2017,12,17,12,14,7.20
2017,12,17,12,15,7.20
2017,12,17,12,16,7.20
2017,12,17,12,17,7.20
2017,12,17,12,18,7.20
2017,12,17,12,19,7.20
2017,12,17,12,20,7.10
2017,12,17,12,21,7.10
2017,12,17,12,22,7.10
2017,12,17,12,23,7.10
2017,12,17,12,24,7.10
2017,12,17,12,25,7.10
2017,12,17,12,26,7.10
2017,12,17,12,27,7.00
2017,12,17,12,28,7.00
2017,12,17,12,29,7.00
2017,12,17,12,30,7.00
2017,12,17,12,31,7.10
2017,12,17,12,32,7.00
2017,12,17,12,33,7.00
2017,12,17,12,34,7.00
2017,12,17,12,35,7.00
2017,12,17,12,36,7.00
2017,12,17,12,37,7.00
2017,12,17,12,38,7.00
2017,12,17,12,39,7.00
2017,12,17,12,40,7.00
2017,12,17,12,41,7.00
2017,12,17,12,42,7.00
2017,12,17,12,43,7.00
2017,12,17,12,44,7.00
2017,12,17,12,45,6.90
2017,12,17,12,46,6.90
2017,12,17,12,47,6.90
2017,12,17,12,48,6.90
2017,12,17,12,49,6.90
2017,12,17,12,50,6.90
2017,12,17,12,51,6.90
2017,12,17,12,52,6.90
2017,12,17,12,53,6.90
2017,12,17,12,54,6.90
2017,12,17,12,55,6.90
2017,12,17,12,56,6.90
2017,12,17,12,57,6.90
2017,12,17,12,58,6.90
2017,12,17,12,59,6.90
2017,12,17,13,00,7.00
2017,12,17,13,01,7.00
2017,12,17,13,02,7.00
2017,12,17,13,03,7.00
2017,12,17,13,04,7.00
2017,12,17,13,05,7.00
2017,12,17,13,06,7.00
2017,12,17,13,07,7.00
2017,12,17,13,08,7.00
2017,12,17,13,09,7.00
2017,12,17,13,10,7.00
2017,12,17,13,11,7.00
2017,12,17,13,12,7.00
2017,12,17,13,13,7.00
2017,12,17,13,14,7.00
2017,12,17,13,15,7.00
2017,12,17,13,16,7.00
2017,12,17,13,17,7.00
2017,12,17,13,18,7.00
2017,12,17,13,19,7.00
2017,12,17,13,20,7.00
2017,12,17,13,21,7.00
2017,12,17,13,22,7.00
2017,12,17,13,23,7.00
2017,12,17,13,24,7.00
2017,12,17,13,25,7.00
2017,12,17,13,26,7.00
2017,12,17,13,27,7.00
2017,12,17,13,28,7.00
2017,12,17,13,29,7.00
2017,12,17,13,30,7.00
2017,12,17,13,31,7.00
2017,12,17,13,32,7.00
2017,12,17,13,33,7.00
2017,12,17,13,34,7.00
2017,12,17,13,35,7.00
2017,12,17,13,36,7.00
2017,12,17,13,37,7.00
2017,12,17,13,38,7.10
2017,12,17,13,39,7.10
2017,12,17,13,40,7.00
2017,12,17,13,41,7.00
2017,12,17,13,42,7.00
2017,12,17,13,43,7.10
2017,12,17,13,44,7.00
2017,12,17,13,45,7.00
2017,12,17,13,46,7.00
2017,12,17,13,47,7.10
2017,12,17,13,48,7.00
2017,12,17,13,49,7.00
2017,12,17,13,50,7.00
2017,12,17,13,51,7.00
2017,12,17,13,52,7.00
2017,12,17,13,53,7.00
2017,12,17,13,54,7.00
2017,12,17,13,55,7.00
2017,12,17,13,56,7.00
2017,12,17,13,57,7.00
2017,12,17,13,58,7.00
2017,12,17,13,59,7.00
2017,12,17,14,00,7.00
2017,12,17,14,01,7.10
2017,12,17,14,02,7.10
2017,12,17,14,03,7.10
2017,12,17,14,04,7.00
2017,12,17,14,05,7.00
2017,12,17,14,06,7.00
2017,12,17,14,07,7.00
2017,12,17,14,08,7.00
2017,12,17,14,09,7.00
2017,12,17,14,10,7.00
2017,12,17,14,11,7.00
2017,12,17,14,12,7.10
2017,12,17,14,13,7.10
2017,12,17,14,14,7.10
2017,12,17,14,15,7.10
2017,12,17,14,16,7.10
2017,12,17,14,17,7.10
2017,12,17,14,18,7.10
2017,12,17,14,19,7.00
2017,12,17,14,20,7.00
2017,12,17,14,21,7.00
2017,12,17,14,22,7.00
2017,12,17,14,23,7.00
2017,12,17,14,24,7.00
2017,12,17,14,25,7.00
2017,12,17,14,26,7.00
2017,12,17,14,27,7.00
2017,12,17,14,28,7.00
2017,12,17,14,29,7.00
2017,12,17,14,30,7.00
2017,12,17,14,31,7.00
2017,12,17,14,32,7.00
2017,12,17,14,33,7.00
2017,12,17,14,34,7.00
2017,12,17,14,35,7.00
2017,12,17,14,36,7.00
2017,12,17,14,37,7.00
2017,12,17,14,38,7.00
2017,12,17,14,39,7.00
2017,12,17,14,40,7.00
2017,12,17,14,41,7.00
2017,12,17,14,42,7.00
2017,12,17,14,43,7.00
2017,12,17,14,44,7.00
2017,12,17,14,45,7.00
2017,12,17,14,46,7.00
2017,12,17,14,47,7.00
2017,12,17,14,48,7.00
2017,12,17,14,49,6.90
2017,12,17,14,50,6.90
2017,12,17,14,51,6.90
2017,12,17,14,52,6.90
2017,12,17,14,53,6.90
2017,12,17,14,54,7.00
2017,12,17,14,55,7.00
2017,12,17,14,56,7.00
2017,12,17,14,57,7.00
2017,12,17,14,58,7.00
2017,12,17,14,59,7.00
2017,12,17,15,00,6.90
2017,12,17,15,01,6.90
2017,12,17,15,02,7.00
2017,12,17,15,03,7.00
2017,12,17,15,04,7.00
2017,12,17,15,05,7.00
2017,12,17,15,06,7.00
2017,12,17,15,07,7.00
2017,12,17,15,08,7.00
2017,12,17,15,09,7.00
2017,12,17,15,10,7.00
2017,12,17,15,11,7.00
2017,12,17,15,12,7.00
2017,12,17,15,13,7.00
2017,12,17,15,14,7.00
2017,12,17,15,15,7.00
2017,12,17,15,16,7.00
2017,12,17,15,17,7.00
2017,12,17,15,18,7.00
2017,12,17,15,19,7.00
2017,12,17,15,20,7.00
2017,12,17,15,21,7.00
2017,12,17,15,22,7.00
2017,12,17,15,23,7.00
2017,12,17,15,24,7.00
2017,12,17,15,25,7.10
2017,12,17,15,26,7.10
2017,12,17,15,27,7.10
2017,12,17,15,28,7.10
2017,12,17,15,29,7.10
2017,12,17,15,30,7.10
2017,12,17,15,31,7.10
2017,12,17,15,32,7.10
2017,12,17,15,33,7.10
2017,12,17,15,34,7.10
2017,12,17,15,35,7.10
2017,12,17,15,36,7.10
2017,12,17,15,37,7.10
2017,12,17,15,38,7.10
2017,12,17,15,39,7.00
2017,12,17,15,40,7.00
2017,12,17,15,41,7.00
2017,12,17,15,42,7.00
2017,12,17,15,43,7.00
2017,12,17,15,44,7.00
2017,12,17,15,45,7.00
2017,12,17,15,46,7.00
2017,12,17,15,47,7.00
2017,12,17,15,48,7.00
2017,12,17,15,49,7.00
2017,12,17,15,50,7.00
2017,12,17,15,51,7.00
2017,12,17,15,52,7.00
2017,12,17,15,53,7.00
2017,12,17,15,54,7.00
2017,12,17,15,55,7.00
2017,12,17,15,56,7.00
2017,12,17,15,57,7.00
2017,12,17,15,58,7.00
2017,12,17,15,59,7.00
2017,12,17,16,00,7.00
2017,12,17,16,01,7.00
2017,12,17,16,02,7.00
2017,12,17,16,03,7.00
2017,12,17,16,04,7.00
2017,12,17,16,05,7.10
2017,12,17,16,06,7.10
2017,12,17,16,07,7.10
2017,12,17,16,08,7.10
2017,12,17,16,09,7.10
2017,12,17,16,10,7.10
2017,12,17,16,11,7.10
2017,12,17,16,12,7.20
2017,12,17,16,13,7.30
2017,12,17,16,14,7.40
2017,12,17,16,15,7.40
2017,12,17,16,16,7.40
2017,12,17,16,17,7.40
2017,12,17,16,18,7.40
2017,12,17,16,19,7.40
2017,12,17,16,20,7.30
2017,12,17,16,21,7.30
2017,12,17,16,22,7.30
2017,12,17,16,23,7.30
2017,12,17,16,24,7.30
2017,12,17,16,25,7.30
2017,12,17,16,26,7.30
2017,12,17,16,27,7.40
2017,12,17,16,28,7.50
2017,12,17,16,29,7.70
2017,12,17,16,30,7.70
2017,12,17,16,31,7.70
2017,12,17,16,32,7.70
2017,12,17,16,33,7.70
2017,12,17,16,34,8.00
2017,12,17,16,35,8.00
2017,12,17,16,36,8.10
2017,12,17,16,37,8.30
2017,12,17,16,38,8.40
2017,12,17,16,39,8.40
2017,12,17,16,40,8.40
2017,12,17,16,41,8.50
2017,12,17,16,42,8.60
2017,12,17,16,43,8.50
2017,12,17,16,44,8.50
2017,12,17,16,45,8.60
2017,12,17,16,46,8.70
2017,12,17,16,47,8.80
2017,12,17,16,48,8.90
2017,12,17,16,49,8.90
2017,12,17,16,50,9.00
2017,12,17,16,51,9.10
2017,12,17,16,52,9.10
2017,12,17,16,53,9.10
2017,12,17,16,54,9.10
2017,12,17,16,55,9.10
2017,12,17,16,56,9.10
2017,12,17,16,57,9.20
2017,12,17,16,58,9.20
2017,12,17,16,59,9.20
2017,12,17,17,00,9.20
2017,12,17,17,01,9.20
2017,12,17,17,02,9.20
2017,12,17,17,03,9.20
2017,12,17,17,04,9.20
2017,12,17,17,05,9.20
2017,12,17,17,06,9.20
2017,12,17,17,07,9.20
2017,12,17,17,08,9.20
2017,12,17,17,09,9.20
2017,12,17,17,10,9.20
2017,12,17,17,11,9.20
2017,12,17,17,12,9.20
2017,12,17,17,13,9.20
2017,12,17,17,14,9.10
2017,12,17,17,15,9.00
2017,12,17,17,16,8.90
2017,12,17,17,17,8.90
2017,12,17,17,18,8.90
2017,12,17,17,19,8.80
2017,12,17,17,20,8.70
2017,12,17,17,21,8.70
2017,12,17,17,22,8.70
2017,12,17,17,23,8.70
2017,12,17,17,24,8.70
2017,12,17,17,25,8.70
2017,12,17,17,26,8.70
2017,12,17,17,27,8.70
2017,12,17,17,28,8.60
2017,12,17,17,29,8.50
2017,12,17,17,30,8.40
2017,12,17,17,31,8.30
2017,12,17,17,32,8.20
2017,12,17,17,33,8.20
2017,12,17,17,34,8.20
2017,12,17,17,35,8.20
2017,12,17,17,36,8.10
2017,12,17,17,37,8.10
2017,12,17,17,38,8.10
2017,12,17,17,39,8.10
2017,12,17,17,40,8.10
2017,12,17,17,41,8.10
2017,12,17,17,42,8.00
2017,12,17,17,43,8.00
2017,12,17,17,44,8.00
2017,12,17,17,45,8.00
2017,12,17,17,46,7.90
2017,12,17,17,47,7.90
2017,12,17,17,48,7.90
2017,12,17,17,49,7.90
2017,12,17,17,50,7.90
2017,12,17,17,51,7.90
2017,12,17,17,52,7.90
2017,12,17,17,53,7.90
2017,12,17,17,54,7.90
2017,12,17,17,55,7.90
2017,12,17,17,56,7.90
2017,12,17,17,57,7.90
2017,12,17,17,58,7.90
2017,12,17,17,59,7.80
2017,12,17,18,00,7.80
2017,12,17,18,01,7.80
2017,12,17,18,02,7.80
2017,12,17,18,03,7.80
2017,12,17,18,04,7.80
2017,12,17,18,05,7.80
2017,12,17,18,06,7.80
2017,12,17,18,07,7.80
2017,12,17,18,08,7.80
2017,12,17,18,09,7.80
2017,12,17,18,10,7.80
2017,12,17,18,11,7.80
2017,12,17,18,12,7.80
2017,12,17,18,13,7.80
2017,12,17,18,14,7.80
2017,12,17,18,15,7.80
2017,12,17,18,16,7.80
2017,12,17,18,17,7.80
2017,12,17,18,18,7.80
2017,12,17,18,19,7.80
2017,12,17,18,20,7.80
2017,12,17,18,21,7.80
2017,12,17,18,22,7.80
2017,12,17,18,23,7.80
2017,12,17,18,24,7.80
2017,12,17,18,25,7.80
2017,12,17,18,26,7.80
2017,12,17,18,27,7.80
2017,12,17,18,28,7.80
2017,12,17,18,29,7.80
2017,12,17,18,30,7.80
2017,12,17,18,31,7.80
2017,12,17,18,32,7.80
2017,12,17,18,33,7.80
2017,12,17,18,34,7.80
2017,12,17,18,35,7.80
2017,12,17,18,36,7.80
2017,12,17,18,37,7.80
2017,12,17,18,38,7.90
2017,12,17,18,39,8.10
2017,12,17,18,40,8.20
2017,12,17,18,41,8.10
2017,12,17,18,42,8.10
2017,12,17,18,43,8.00
2017,12,17,18,44,8.00
2017,12,17,18,45,8.00
2017,12,17,18,46,8.10
2017,12,17,18,47,8.10
2017,12,17,18,48,8.10
2017,12,17,18,49,8.10
2017,12,17,18,50,8.10
2017,12,17,18,51,8.10
2017,12,17,18,52,8.00
2017,12,17,18,53,8.00
2017,12,17,18,54,8.00
2017,12,17,18,55,8.00
2017,12,17,18,56,8.00
2017,12,17,18,57,8.00
2017,12,17,18,58,8.10
2017,12,17,18,59,8.10
2017,12,17,19,00,8.10
2017,12,17,19,01,8.10
2017,12,17,19,02,8.10
2017,12,17,19,03,8.00
2017,12,17,19,04,8.00
2017,12,17,19,05,8.00
2017,12,17,19,06,8.00
2017,12,17,19,07,8.00
2017,12,17,19,08,8.00
2017,12,17,19,09,8.00
2017,12,17,19,10,8.00
2017,12,17,19,11,8.00
2017,12,17,19,12,8.00
2017,12,17,19,13,8.00
2017,12,17,19,14,8.00
2017,12,17,19,15,8.00
2017,12,17,19,16,8.00
2017,12,17,19,17,8.10
2017,12,17,19,18,8.20
2017,12,17,19,19,8.30
2017,12,17,19,20,8.40
2017,12,17,19,21,8.60
2017,12,17,19,22,8.80
2017,12,17,19,23,9.00
2017,12,17,19,24,9.10
2017,12,17,19,25,9.10
2017,12,17,19,26,9.00
2017,12,17,19,27,9.10
2017,12,17,19,28,9.10
2017,12,17,19,29,9.20
2017,12,17,19,30,9.30
2017,12,17,19,31,9.30
2017,12,17,19,32,9.40
2017,12,17,19,33,9.40
2017,12,17,19,34,9.40
2017,12,17,19,35,9.50
2017,12,17,19,36,9.50
2017,12,17,19,37,9.50
2017,12,17,19,38,9.50
2017,12,17,19,39,9.50
2017,12,17,19,40,9.40
2017,12,17,19,41,9.20
2017,12,17,19,42,9.00
2017,12,17,19,43,8.80
2017,12,17,19,44,8.70
2017,12,17,19,45,8.60
2017,12,17,19,46,8.50
2017,12,17,19,47,8.50
2017,12,17,19,48,8.50
2017,12,17,19,49,8.50
2017,12,17,19,50,8.60
2017,12,17,19,51,8.70
2017,12,17,19,52,8.80
2017,12,17,19,53,8.90
2017,12,17,19,54,9.00
2017,12,17,19,55,9.20
2017,12,17,19,56,9.20
2017,12,17,19,57,9.30
2017,12,17,19,58,9.40
2017,12,17,19,59,9.40
2017,12,17,20,00,9.40
2017,12,17,20,01,9.50
2017,12,17,20,02,9.50
2017,12,17,20,03,9.50
2017,12,17,20,04,9.50
2017,12,17,20,05,9.60
2017,12,17,20,06,9.60
2017,12,17,20,07,9.50
2017,12,17,20,08,9.50
2017,12,17,20,09,9.50
2017,12,17,20,10,9.50
2017,12,17,20,11,9.50
2017,12,17,20,12,9.50
2017,12,17,20,13,9.50
2017,12,17,20,14,9.50
2017,12,17,20,15,9.50
2017,12,17,20,16,9.50
2017,12,17,20,17,9.50
2017,12,17,20,18,9.50
2017,12,17,20,19,9.50
2017,12,17,20,20,9.50
2017,12,17,20,21,9.50
2017,12,17,20,22,9.50
2017,12,17,20,23,9.50
2017,12,17,20,24,9.40
2017,12,17,20,25,9.40
2017,12,17,20,26,9.40
2017,12,17,20,27,9.40
2017,12,17,20,28,9.30
2017,12,17,20,29,9.30
2017,12,17,20,30,9.30
2017,12,17,20,31,9.30
2017,12,17,20,32,9.30
2017,12,17,20,33,9.20
2017,12,17,20,34,9.20
2017,12,17,20,35,9.20
2017,12,17,20,36,9.20
2017,12,17,20,37,9.20
2017,12,17,20,38,9.20
2017,12,17,20,39,9.20
2017,12,17,20,40,9.10
2017,12,17,20,41,9.00
2017,12,17,20,42,9.00
2017,12,17,20,43,8.90
2017,12,17,20,44,8.80
2017,12,17,20,45,8.70
2017,12,17,20,46,8.70
2017,12,17,20,47,8.70
2017,12,17,20,48,8.60
2017,12,17,20,49,8.60
2017,12,17,20,50,8.50
2017,12,17,20,51,8.50
2017,12,17,20,52,8.40
2017,12,17,20,53,8.40
2017,12,17,20,54,8.30
2017,12,17,20,55,8.30
2017,12,17,20,56,8.20
2017,12,17,20,57,8.20
2017,12,17,20,58,8.20
2017,12,17,20,59,8.20
2017,12,17,21,00,8.20
2017,12,17,21,01,8.10
2017,12,17,21,02,8.10
2017,12,17,21,03,8.10
2017,12,17,21,04,8.10
2017,12,17,21,05,8.10
2017,12,17,21,06,8.00
2017,12,17,21,07,8.00
2017,12,17,21,08,8.00
2017,12,17,21,09,7.90
2017,12,17,21,10,7.90
2017,12,17,21,11,7.90
2017,12,17,21,12,7.90
2017,12,17,21,13,7.90
2017,12,17,21,14,7.90
2017,12,17,21,15,7.90
2017,12,17,21,16,7.90
2017,12,17,21,17,7.80
2017,12,17,21,18,7.80
2017,12,17,21,19,7.80
2017,12,17,21,20,7.80
2017,12,17,21,21,7.80
2017,12,17,21,22,7.90
2017,12,17,21,23,7.90
2017,12,17,21,24,7.90
2017,12,17,21,25,7.90
2017,12,17,21,26,7.90
2017,12,17,21,27,7.90
2017,12,17,21,28,7.90
2017,12,17,21,29,7.90
2017,12,17,21,30,7.90
2017,12,17,21,31,7.90
2017,12,17,21,32,7.90
2017,12,17,21,33,7.90
2017,12,17,21,34,7.90
2017,12,17,21,35,7.90
2017,12,17,21,36,7.90
2017,12,17,21,37,7.90
2017,12,17,21,38,7.90
2017,12,17,21,39,7.90
2017,12,17,21,40,7.90
2017,12,17,21,41,8.00
2017,12,17,21,42,8.00
2017,12,17,21,43,8.00
2017,12,17,21,44,8.00
2017,12,17,21,45,8.00
2017,12,17,21,46,8.00
2017,12,17,21,47,8.10
2017,12,17,21,48,8.10
2017,12,17,21,49,8.10
2017,12,17,21,50,8.20
2017,12,17,21,51,8.20
2017,12,17,21,52,8.20
2017,12,17,21,53,8.20
2017,12,17,21,54,8.20
2017,12,17,21,55,8.30
2017,12,17,21,56,8.30
2017,12,17,21,57,8.30
2017,12,17,21,58,8.30
2017,12,17,21,59,8.30
2017,12,17,22,00,8.40
2017,12,17,22,01,8.40
2017,12,17,22,02,8.40
2017,12,17,22,03,8.40
2017,12,17,22,04,8.50
2017,12,17,22,05,8.50
2017,12,17,22,06,8.50
2017,12,17,22,07,8.50
2017,12,17,22,08,8.50
2017,12,17,22,09,8.50
2017,12,17,22,10,8.50
2017,12,17,22,11,8.50
2017,12,17,22,12,8.60
2017,12,17,22,13,8.60
2017,12,17,22,14,8.60
2017,12,17,22,15,8.60
2017,12,17,22,16,8.60
2017,12,17,22,17,8.70
2017,12,17,22,18,8.70
2017,12,17,22,19,8.70
2017,12,17,22,20,8.70
2017,12,17,22,21,8.70
2017,12,17,22,22,8.70
2017,12,17,22,23,8.70
2017,12,17,22,24,8.70
2017,12,17,22,25,8.70
2017,12,17,22,26,8.70
2017,12,17,22,27,8.70
2017,12,17,22,28,8.70
2017,12,17,22,29,8.70
2017,12,17,22,30,8.70
2017,12,17,22,31,8.70
2017,12,17,22,32,8.70
2017,12,17,22,33,8.80
2017,12,17,22,34,8.80
2017,12,17,22,35,8.80
2017,12,17,22,36,8.80
2017,12,17,22,37,8.80
2017,12,17,22,38,8.80
2017,12,17,22,39,8.80
2017,12,17,22,40,8.80
2017,12,17,22,41,8.90
2017,12,17,22,42,8.90
2017,12,17,22,43,8.90
2017,12,17,22,44,8.90
2017,12,17,22,45,8.90
2017,12,17,22,46,8.90
2017,12,17,22,47,8.90
2017,12,17,22,48,8.90
2017,12,17,22,49,8.90
2017,12,17,22,50,8.90
2017,12,17,22,51,8.90
2017,12,17,22,52,8.90
2017,12,17,22,53,8.90
2017,12,17,22,54,8.90
2017,12,17,22,55,8.90
2017,12,17,22,56,8.90
2017,12,17,22,57,8.90
2017,12,17,22,58,8.90
2017,12,17,22,59,8.90
2017,12,17,23,00,8.90
2017,12,17,23,01,8.90
2017,12,17,23,02,8.90
2017,12,17,23,03,8.90
2017,12,17,23,04,8.90
2017,12,17,23,05,8.90
2017,12,17,23,06,8.90
2017,12,17,23,07,9.00
2017,12,17,23,08,9.00
2017,12,17,23,09,9.00
2017,12,17,23,10,9.00
2017,12,17,23,11,9.00
2017,12,17,23,12,9.00
2017,12,17,23,13,9.00
2017,12,17,23,14,9.00
2017,12,17,23,15,9.00
2017,12,17,23,16,9.10
2017,12,17,23,17,9.10
2017,12,17,23,18,9.10
2017,12,17,23,19,9.10
2017,12,17,23,20,9.10
2017,12,17,23,21,9.10
2017,12,17,23,22,9.20
2017,12,17,23,23,9.20
2017,12,17,23,24,9.20
2017,12,17,23,25,9.20
2017,12,17,23,26,9.20
2017,12,17,23,27,9.20
2017,12,17,23,28,9.20
2017,12,17,23,29,9.20
2017,12,17,23,30,9.20
2017,12,17,23,31,9.20
2017,12,17,23,32,9.20
2017,12,17,23,33,9.20
2017,12,17,23,34,9.20
2017,12,17,23,35,9.20
2017,12,17,23,36,9.20
2017,12,17,23,37,9.20
2017,12,17,23,38,9.20
2017,12,17,23,39,9.20
2017,12,17,23,40,9.20
2017,12,17,23,41,9.20
2017,12,17,23,42,9.20
2017,12,17,23,43,9.20
2017,12,17,23,44,9.20
2017,12,17,23,45,9.30
2017,12,17,23,46,9.30
2017,12,17,23,47,9.30
2017,12,17,23,48,9.30
2017,12,17,23,49,9.30
2017,12,17,23,50,9.30
2017,12,17,23,51,9.40
2017,12,17,23,52,9.40
2017,12,17,23,53,9.40
2017,12,17,23,54,9.40
2017,12,17,23,55,9.40
2017,12,17,23,56,9.40
2017,12,17,23,57,9.40
2017,12,17,23,58,9.40
2017,12,17,23,59,9.40
